Newark Heath, OH

11:48 AM EST on November 21, 2019 (GMT -0500)
Newark Heath

Weather History for KVTA - October, 2019

Change the Weather History Date:

Sunday, October 20, 2019

  Actual Average Record
Temperature  
Mean Temperature 59 °F -  
Max Temperature 75 °F 60 °F 84 °F (1953)
Min Temperature 43 °F 37 °F 22 °F (1972)
Degree Days  
Heating Degree Days 6    
Growing Degree Days 9 (Base 50)    
Moisture  
Dew Point 47 °F    
Average Humidity 73    
Maximum Humidity 90    
Minimum Humidity 40    
Precipitation  
Precipitation 0.00 in - - ()
Sea Level Pressure  
Sea Level Pressure 29.88 in    
Wind  
Wind Speed 1 mph ()    
Max Wind Speed 7 mph    
Max Gust Speed -    
Visibility 9.9 miles    
Events      
Averages and records for this station are not official NWS values.
T = Trace of Precipitation, MM = Missing Value Source: Averaged Metar Reports

Daily Weather History Graph

Daily Weather History Graph

Search for Another Location

Airport or City:

Astronomy

Oct. 20, 2019 Rise Set
Actual Time 7:45 AM EDT 6:43 PM EDT
Civil Twilight 7:17 AM EDT 7:10 PM EDT
Nautical Twilight 6:46 AM EDT 7:42 PM EDT
Astronomical Twilight 6:14 AM EDT 8:13 PM EDT
Moon 11:50 PM EDT (10/20) 2:12 PM EDT (10/20)
Length of Visible Light 11h 52m
Length of Day
10h 57m
Waning Gibbous, 59% of the Moon is Illuminated
Oct 20
Waning Gibbous
Oct 21
Last Quarter
Oct 27
New
Nov 4
First Quarter
Nov 12
Full

Hourly Weather History & Observations

Time (EDT) Temp. Dew Point Humidity Pressure Visibility Wind Dir Wind Speed Gust Speed Precip Events Conditions
12:54 AM 43.0 °F 39.9 °F 89% 29.85 in 10.0 mi Calm Calm - N/A   Clear
1:54 AM 43.0 °F 39.9 °F 89% 29.84 in 10.0 mi Calm Calm - N/A   Clear
2:54 AM 43.0 °F 39.0 °F 86% 29.84 in 10.0 mi Calm Calm - N/A   Clear
3:54 AM 44.1 °F 39.9 °F 85% 29.83 in 10.0 mi Calm Calm - N/A   Clear
4:54 AM 44.1 °F 41.0 °F 89% 29.83 in 10.0 mi Calm Calm - N/A   Clear
5:54 AM 45.0 °F 42.1 °F 90% 29.85 in 10.0 mi Calm Calm - N/A   Partly Cloudy
6:54 AM 45.0 °F 42.1 °F 90% 29.85 in 10.0 mi Calm Calm - N/A   Mostly Cloudy
7:54 AM 48.0 °F 44.1 °F 86% 29.86 in 10.0 mi Calm Calm - N/A   Overcast
8:54 AM 50.0 °F 46.0 °F 86% 29.88 in 10.0 mi Calm Calm - N/A   Overcast
9:54 AM 55.0 °F 46.9 °F 74% 29.89 in 10.0 mi Calm Calm - N/A   Overcast
10:54 AM 62.1 °F 48.9 °F 62% 29.90 in 10.0 mi Variable 3.5 mph - N/A   Clear
11:54 AM 66.9 °F 50.0 °F 54% 29.89 in 10.0 mi SW 3.5 mph - N/A   Clear
12:54 PM 70.0 °F 50.0 °F 49% 29.88 in 10.0 mi Variable 3.5 mph - N/A   Clear
1:54 PM 73.0 °F 51.1 °F 46% 29.88 in 10.0 mi South 5.8 mph - N/A   Overcast
2:54 PM 73.9 °F 50.0 °F 43% 29.86 in 10.0 mi Variable 5.8 mph - N/A   Clear
3:54 PM 75.9 °F 50.0 °F 40% 29.87 in 10.0 mi Calm Calm - N/A   Clear
4:54 PM 73.9 °F 51.1 °F 45% 29.88 in 10.0 mi NW 6.9 mph - N/A   Mostly Cloudy
5:54 PM 73.0 °F 51.1 °F 46% 29.88 in 10.0 mi SSW 6.9 mph - N/A   Mostly Cloudy
6:54 PM 62.1 °F 52.0 °F 70% 29.90 in 10.0 mi Calm Calm - N/A   Clear
7:54 PM 55.9 °F 50.0 °F 80% 29.92 in 10.0 mi Calm Calm - N/A   Clear
8:54 PM 54.0 °F 50.0 °F 86% 29.94 in 9.0 mi Calm Calm - N/A   Mostly Cloudy
9:54 PM 55.9 °F 51.1 °F 84% 29.95 in 10.0 mi Calm Calm - N/A   Overcast
10:54 PM 54.0 °F 50.0 °F 86% 29.97 in 10.0 mi Calm Calm - N/A   Scattered Clouds
11:54 PM 50.0 °F 46.9 °F 89% 29.97 in 9.0 mi Calm Calm - N/A   Partly Cloudy